This is the latest recevied weather packets stored in our database for station/object KF7ROW. If no packets are shown the sender has not sent any weather packets the latest 10 day(s).
| Time | Temp. | Humidity | Pressure | Rain* | Wind** | Luminosity | Snow |
|---|---|---|---|---|---|---|---|
| 1777689893 | 11.67° C | 87% | 1022.4 hPa | 0 mm | - | 15 W/m² | - |
| 1777689591 | 11.67° C | 86% | 1022.2 hPa | 0 mm | - | 21 W/m² | - |
| 1777689288 | 11.67° C | 86% | 1022.2 hPa | 0 mm | - | 21 W/m² | - |
| 1777688986 | 11.67° C | 86% | 1022.2 hPa | 0 mm | - | 22 W/m² | - |
| 1777688682 | 12.22° C | 87% | 1022.1 hPa | 0 mm | - | 23 W/m² | - |
| 1777688379 | 12.22° C | 87% | 1022 hPa | 0 mm | - | 25 W/m² | - |
| 1777688076 | 12.22° C | 87% | 1022 hPa | 0 mm | - | 40 W/m² | - |
| 1777687773 | 11.67° C | 87% | 1022.1 hPa | 0 mm | - | 30 W/m² | - |
| 1777687471 | 12.22° C | 87% | 1021.9 hPa | 0 mm | - | 38 W/m² | - |
| 1777687167 | 12.22° C | 87% | 1021.9 hPa | 0 mm | - | 37 W/m² | - |
| 1777686866 | 12.22° C | 88% | 1022.1 hPa | 0 mm | - | 39 W/m² | - |
| 1777686562 | 12.22° C | 87% | 1022 hPa | 0 mm | - | 46 W/m² | - |
| 1777686259 | 12.22° C | 87% | 1022.1 hPa | 0 mm | - | 41 W/m² | - |
| 1777685955 | 12.22° C | 86% | 1022.2 hPa | 0 mm | - | 44 W/m² | - |
| 1777685650 | 12.22° C | 86% | 1022.1 hPa | 0 mm | - | 48 W/m² | - |
| 1777685347 | 12.22° C | 86% | 1021.9 hPa | 0 mm | - | 68 W/m² | - |
| 1777685045 | 12.22° C | 88% | 1022 hPa | 0 mm | - | 61 W/m² | - |
| 1777684742 | 12.78° C | 88% | 1022 hPa | 0 mm | - | 69 W/m² | - |
| 1777684438 | 12.78° C | 86% | 1022 hPa | 0 mm | - | 77 W/m² | - |
| 1777684135 | 12.78° C | 86% | 1022.2 hPa | 0 mm | - | 76 W/m² | - |
| 1777683832 | 12.78° C | 86% | 1022.1 hPa | 0 mm | - | 79 W/m² | - |
| 1777683529 | 12.78° C | 86% | 1022.2 hPa | 0 mm | - | 78 W/m² | - |
| 1777683227 | 12.78° C | 85% | 1022 hPa | 0 mm | - | 76 W/m² | - |
| 1777682924 | 12.78° C | 86% | 1021.9 hPa | 0 mm | - | 107 W/m² | - |
| 1777682620 | 12.78° C | 84% | 1022 hPa | 0 mm | - | 133 W/m² | - |
* Rain latest hour (hover to see other rain measurements)
** Current wind speed in m/s (hover to see current wind gust speed)